Time,TemperatureF,DewpointF,PressureIn,WindDirection,WindDirectionDegrees,WindSpeedMPH,WindSpeedGustMPH,Humidity,HourlyPrecipIn,Conditions,Clouds,dailyrainin,SoftwareType,DateUTC
2013-05-04 00:03:00,59.2,57.7,29.88,ESE,116,9.0,10.0,95,0.13,,,0.65,meteohub,2013-05-04 05:03:00,
2013-05-04 00:08:00,59.4,57.9,29.87,SE,126,6.0,12.0,95,0.12,,,0.01,meteohub,2013-05-04 05:08:00,
2013-05-04 00:13:00,59.4,57.9,29.87,SE,132,6.0,12.0,95,0.09,,,0.01,meteohub,2013-05-04 05:13:00,
2013-05-04 00:18:00,59.4,57.9,29.87,SE,131,8.0,13.0,95,0.06,,,0.02,meteohub,2013-05-04 05:18:00,
2013-05-04 00:23:00,59.5,57.7,29.87,SE,130,8.0,13.0,94,0.05,,,0.02,meteohub,2013-05-04 05:23:00,
2013-05-04 00:28:00,59.5,57.7,29.87,SSE,154,0.0,13.0,94,0.04,,,0.02,meteohub,2013-05-04 05:28:00,
2013-05-04 00:33:00,59.5,57.7,29.87,SSE,148,6.0,12.0,94,0.03,,,0.02,meteohub,2013-05-04 05:33:00,
2013-05-04 00:38:00,59.4,57.6,29.86,SSE,164,6.0,12.0,94,0.03,,,0.02,meteohub,2013-05-04 05:38:00,
2013-05-04 00:43:00,59.4,57.4,29.86,SE,140,5.0,14.0,93,0.02,,,0.02,meteohub,2013-05-04 05:43:00,
2013-05-04 00:48:00,59.2,57.2,29.86,SE,134,8.0,14.0,93,0.02,,,0.02,meteohub,2013-05-04 05:48:00,
2013-05-04 00:53:00,59.2,57.2,29.86,SE,132,6.0,14.0,93,0.02,,,0.02,meteohub,2013-05-04 05:53:00,
2013-05-04 00:58:00,59.2,57.2,29.86,SSE,157,8.0,13.0,93,0.02,,,0.02,meteohub,2013-05-04 05:58:00,
2013-05-04 01:04:00,59.2,57.2,29.86,SE,145,6.0,13.0,93,0.02,,,0.02,meteohub,2013-05-04 06:04:00,
2013-05-04 01:09:00,59.2,57.2,29.86,ESE,115,8.0,11.0,93,0.01,,,0.02,meteohub,2013-05-04 06:09:00,
2013-05-04 01:14:00,59.2,57.2,29.86,SE,144,6.0,11.0,93,0.01,,,0.02,meteohub,2013-05-04 06:14:00,
2013-05-04 01:19:00,59.2,57.2,29.86,ESE,120,5.0,10.0,93,0.00,,,0.02,meteohub,2013-05-04 06:19:00,
2013-05-04 01:24:00,59.2,57.2,29.86,SE,130,8.0,10.0,93,0.00,,,0.02,meteohub,2013-05-04 06:24:00,
2013-05-04 01:29:00,59.2,57.2,29.86,SE,143,6.0,11.0,93,0.00,,,0.02,meteohub,2013-05-04 06:29:00,
2013-05-04 01:34:00,59.2,57.2,29.86,SE,139,8.0,11.0,93,0.01,,,0.03,meteohub,2013-05-04 06:34:00,
2013-05-04 01:39:00,59.4,57.4,29.86,SSE,149,0.0,11.0,93,0.01,,,0.03,meteohub,2013-05-04 06:39:00,
2013-05-04 01:44:00,59.4,57.4,29.86,SE,132,6.0,11.0,93,0.01,,,0.03,meteohub,2013-05-04 06:44:00,
2013-05-04 01:49:00,59.4,57.4,29.86,SE,143,6.0,11.0,93,0.01,,,0.03,meteohub,2013-05-04 06:49:00,
2013-05-04 01:54:00,59.4,57.4,29.86,ESE,118,8.0,8.0,93,0.01,,,0.03,meteohub,2013-05-04 06:54:00,
2013-05-04 01:59:00,59.4,57.4,29.86,SSE,161,0.0,9.0,93,0.01,,,0.03,meteohub,2013-05-04 06:59:00,
2013-05-04 02:04:00,59.4,57.4,29.86,SE,134,5.0,9.0,93,0.01,,,0.03,meteohub,2013-05-04 07:04:00,
2013-05-04 02:09:00,59.4,57.4,29.86,SE,135,5.0,9.0,93,0.01,,,0.03,meteohub,2013-05-04 07:09:00,
2013-05-04 02:14:00,59.5,57.6,29.86,ESE,114,5.0,9.0,93,0.01,,,0.03,meteohub,2013-05-04 07:14:00,
2013-05-04 02:19:00,59.5,57.6,29.86,SE,126,5.0,9.0,93,0.01,,,0.03,meteohub,2013-05-04 07:19:00,
2013-05-04 02:24:00,59.7,57.7,29.86,SE,126,6.0,9.0,93,0.01,,,0.03,meteohub,2013-05-04 07:24:00,
2013-05-04 02:29:00,59.7,57.7,29.86,ESE,120,6.0,10.0,93,0.01,,,0.03,meteohub,2013-05-04 07:29:00,
2013-05-04 02:34:00,59.7,57.7,29.86,SE,128,7.0,10.0,93,0.00,,,0.03,meteohub,2013-05-04 07:34:00,
2013-05-04 02:39:00,59.7,57.7,29.86,SE,143,5.0,10.0,93,0.00,,,0.03,meteohub,2013-05-04 07:39:00,
2013-05-04 02:44:00,59.7,57.4,29.86,SE,138,6.0,9.0,92,0.00,,,0.03,meteohub,2013-05-04 07:44:00,
2013-05-04 02:49:00,59.7,57.4,29.86,SE,128,5.0,8.0,92,0.00,,,0.03,meteohub,2013-05-04 07:49:00,
2013-05-04 02:54:00,59.7,57.4,29.86,SSE,156,5.0,8.0,92,0.00,,,0.03,meteohub,2013-05-04 07:54:00,
2013-05-04 02:59:00,59.7,57.4,29.86,SE,143,6.0,8.0,92,0.00,,,0.03,meteohub,2013-05-04 07:59:00,
2013-05-04 03:05:00,59.7,57.4,29.86,SE,129,5.0,8.0,92,0.00,,,0.03,meteohub,2013-05-04 08:05:00,
2013-05-04 03:10:00,59.7,57.4,29.86,SE,128,5.0,8.0,92,0.00,,,0.03,meteohub,2013-05-04 08:10:00,
2013-05-04 03:15:00,59.5,57.2,29.86,SE,128,0.0,8.0,92,0.00,,,0.03,meteohub,2013-05-04 08:15:00,
2013-05-04 03:20:00,59.5,57.2,29.86,ESE,118,5.0,8.0,92,0.00,,,0.03,meteohub,2013-05-04 08:20:00,
2013-05-04 03:25:00,59.5,57.2,29.86,ESE,120,5.0,8.0,92,0.00,,,0.03,meteohub,2013-05-04 08:25:00,
2013-05-04 03:30:00,59.5,56.8,29.86,ESE,120,0.0,8.0,91,0.00,,,0.03,meteohub,2013-05-04 08:30:00,
2013-05-04 03:35:00,59.5,56.8,29.86,SE,130,5.0,7.0,91,0.00,,,0.03,meteohub,2013-05-04 08:35:00,
2013-05-04 03:40:00,59.5,56.8,29.86,SE,134,6.0,7.0,91,0.00,,,0.03,meteohub,2013-05-04 08:40:00,
2013-05-04 03:45:00,59.5,56.8,29.86,SE,127,6.0,8.0,91,0.00,,,0.03,meteohub,2013-05-04 08:45:00,
2013-05-04 03:50:00,59.7,57.0,29.86,SE,141,5.0,9.0,91,0.00,,,0.03,meteohub,2013-05-04 08:50:00,
2013-05-04 03:55:00,59.7,56.8,29.86,SE,133,0.0,9.0,90,0.00,,,0.03,meteohub,2013-05-04 08:55:00,
2013-05-04 04:00:00,59.7,56.8,29.86,SE,140,0.0,8.0,90,0.00,,,0.03,meteohub,2013-05-04 09:00:00,
2013-05-04 04:05:00,59.5,56.8,29.86,SE,134,5.0,8.0,91,0.00,,,0.03,meteohub,2013-05-04 09:05:00,
2013-05-04 04:10:00,59.5,56.8,29.86,SE,132,6.0,7.0,91,0.00,,,0.03,meteohub,2013-05-04 09:10:00,
2013-05-04 04:15:00,59.5,56.8,29.86,SE,129,5.0,8.0,91,0.00,,,0.03,meteohub,2013-05-04 09:15:00,
2013-05-04 04:20:00,59.5,56.8,29.86,SE,131,5.0,8.0,91,0.00,,,0.03,meteohub,2013-05-04 09:20:00,
2013-05-04 04:25:00,59.5,56.8,29.86,SE,131,5.0,8.0,91,0.00,,,0.03,meteohub,2013-05-04 09:25:00,
2013-05-04 04:30:00,59.5,56.7,29.86,SE,142,0.0,7.0,90,0.00,,,0.03,meteohub,2013-05-04 09:30:00,
2013-05-04 04:35:00,59.5,56.7,29.86,SE,134,5.0,6.0,90,0.00,,,0.03,meteohub,2013-05-04 09:35:00,
2013-05-04 04:40:00,59.5,56.7,29.85,SE,134,0.0,6.0,90,0.00,,,0.03,meteohub,2013-05-04 09:40:00,
2013-05-04 04:45:00,59.5,56.7,29.85,SE,143,0.0,6.0,90,0.00,,,0.03,meteohub,2013-05-04 09:45:00,
2013-05-04 04:50:00,59.5,56.3,29.85,SE,143,0.0,6.0,89,0.00,,,0.03,meteohub,2013-05-04 09:50:00,
2013-05-04 04:55:00,59.7,56.5,29.85,SE,134,5.0,7.0,89,0.00,,,0.03,meteohub,2013-05-04 09:55:00,
2013-05-04 05:00:00,59.7,56.5,29.85,SE,127,5.0,8.0,89,0.00,,,0.03,meteohub,2013-05-04 10:00:00,
2013-05-04 05:06:00,59.7,56.1,29.85,SE,143,5.0,8.0,88,0.00,,,0.03,meteohub,2013-05-04 10:06:00,
2013-05-04 05:11:00,59.7,56.1,29.85,ESE,122,6.0,7.0,88,0.00,,,0.03,meteohub,2013-05-04 10:11:00,
2013-05-04 05:16:00,59.7,56.1,29.85,SE,127,5.0,7.0,88,0.00,,,0.03,meteohub,2013-05-04 10:16:00,
2013-05-04 05:21:00,59.9,56.3,29.85,SSE,149,5.0,6.0,88,0.00,,,0.03,meteohub,2013-05-04 10:21:00,
2013-05-04 05:26:00,59.7,56.1,29.85,SSE,159,5.0,6.0,88,0.00,,,0.03,meteohub,2013-05-04 10:26:00,
2013-05-04 05:31:00,59.7,56.1,29.86,SE,129,0.0,6.0,88,0.00,,,0.03,meteohub,2013-05-04 10:31:00,
2013-05-04 05:36:00,59.9,56.3,29.86,SE,137,0.0,9.0,88,0.00,,,0.03,meteohub,2013-05-04 10:36:00,
2013-05-04 05:41:00,59.9,55.9,29.86,SE,141,5.0,9.0,87,0.00,,,0.03,meteohub,2013-05-04 10:41:00,
2013-05-04 05:46:00,60.1,56.1,29.86,SE,142,0.0,9.0,87,0.00,,,0.03,meteohub,2013-05-04 10:46:00,
2013-05-04 05:51:00,60.1,56.1,29.86,SE,142,6.0,8.0,87,0.00,,,0.03,meteohub,2013-05-04 10:51:00,
2013-05-04 05:56:00,59.9,56.3,29.86,SSE,155,5.0,8.0,88,0.00,,,0.03,meteohub,2013-05-04 10:56:00,
2013-05-04 06:01:00,59.7,56.1,29.86,SE,126,5.0,8.0,88,0.00,,,0.03,meteohub,2013-05-04 11:01:00,
2013-05-04 06:06:00,59.7,56.1,29.86,SE,144,5.0,8.0,88,0.00,,,0.03,meteohub,2013-05-04 11:06:00,
2013-05-04 06:11:00,59.7,56.1,29.86,SE,143,5.0,8.0,88,0.00,,,0.03,meteohub,2013-05-04 11:11:00,
2013-05-04 06:16:00,59.7,56.5,29.87,SE,145,6.0,6.0,89,0.00,,,0.03,meteohub,2013-05-04 11:16:00,
2013-05-04 06:21:00,59.5,56.3,29.87,SSE,151,5.0,8.0,89,0.00,,,0.03,meteohub,2013-05-04 11:21:00,
2013-05-04 06:26:00,59.5,56.3,29.87,SSE,151,5.0,8.0,89,0.00,,,0.03,meteohub,2013-05-04 11:26:00,
2013-05-04 06:31:00,59.5,56.3,29.87,SSE,147,5.0,8.0,89,0.00,,,0.03,meteohub,2013-05-04 11:31:00,
2013-05-04 06:36:00,59.4,56.5,29.87,SSE,147,5.0,7.0,90,0.00,,,0.03,meteohub,2013-05-04 11:36:00,
2013-05-04 06:41:00,59.4,56.5,29.87,SE,146,0.0,6.0,90,0.00,,,0.03,meteohub,2013-05-04 11:41:00,
2013-05-04 06:46:00,59.4,56.5,29.88,SSE,147,6.0,6.0,90,0.00,,,0.03,meteohub,2013-05-04 11:46:00,
2013-05-04 06:51:00,59.5,56.7,29.88,SSE,147,0.0,6.0,90,0.00,,,0.03,meteohub,2013-05-04 11:51:00,
2013-05-04 06:57:00,59.5,56.8,29.88,SSE,147,0.0,6.0,91,0.00,,,0.03,meteohub,2013-05-04 11:57:00,
2013-05-04 07:02:00,59.5,56.8,29.88,SSE,147,0.0,6.0,91,0.00,,,0.03,meteohub,2013-05-04 12:02:00,
2013-05-04 07:07:00,59.7,56.8,29.88,SSE,154,5.0,6.0,90,0.00,,,0.03,meteohub,2013-05-04 12:07:00,
2013-05-04 07:12:00,59.7,56.8,29.88,SSE,154,5.0,6.0,90,0.00,,,0.03,meteohub,2013-05-04 12:12:00,
2013-05-04 07:17:00,59.9,57.0,29.88,SSE,154,0.0,6.0,90,0.00,,,0.03,meteohub,2013-05-04 12:17:00,
2013-05-04 07:22:00,60.1,57.2,29.88,SSE,148,5.0,6.0,90,0.00,,,0.03,meteohub,2013-05-04 12:22:00,
2013-05-04 07:27:00,60.1,57.2,29.89,SE,140,5.0,6.0,90,0.00,,,0.03,meteohub,2013-05-04 12:27:00,
2013-05-04 07:32:00,60.3,57.4,29.89,SE,140,6.0,6.0,90,0.00,,,0.03,meteohub,2013-05-04 12:32:00,
2013-05-04 07:37:00,60.3,57.4,29.89,SE,125,5.0,7.0,90,0.00,,,0.03,meteohub,2013-05-04 12:37:00,
2013-05-04 07:42:00,60.3,57.4,29.89,SE,145,5.0,8.0,90,0.00,,,0.03,meteohub,2013-05-04 12:42:00,
2013-05-04 07:47:00,60.3,57.6,29.89,SE,128,6.0,8.0,91,0.00,,,0.03,meteohub,2013-05-04 12:47:00,
2013-05-04 07:52:00,60.4,57.6,29.89,SE,125,5.0,9.0,90,0.00,,,0.03,meteohub,2013-05-04 12:52:00,
2013-05-04 07:57:00,61.0,58.1,29.90,ESE,123,0.0,9.0,90,0.00,,,0.03,meteohub,2013-05-04 12:57:00,
2013-05-04 08:02:00,61.3,58.5,29.90,SE,133,5.0,9.0,90,0.00,,,0.03,meteohub,2013-05-04 13:02:00,
2013-05-04 08:06:00,61.7,58.5,29.90,SE,130,5.0,8.0,89,0.00,,,0.03,meteohub,2013-05-04 13:06:00,
2013-05-04 08:11:00,62.2,59.0,29.90,SE,133,5.0,8.0,89,0.00,,,0.03,meteohub,2013-05-04 13:11:00,
2013-05-04 08:16:00,62.8,59.2,29.90,SE,129,5.0,8.0,88,0.00,,,0.03,meteohub,2013-05-04 13:16:00,
2013-05-04 08:21:00,63.0,58.6,29.90,SSE,156,5.0,8.0,86,0.00,,,0.03,meteohub,2013-05-04 13:21:00,
2013-05-04 08:26:00,62.8,58.5,29.90,SE,128,5.0,8.0,86,0.00,,,0.03,meteohub,2013-05-04 13:26:00,
2013-05-04 08:31:00,63.0,58.6,29.90,SSE,154,0.0,8.0,86,0.00,,,0.03,meteohub,2013-05-04 13:31:00,
2013-05-04 08:36:00,62.8,58.5,29.90,ESE,119,5.0,6.0,86,0.00,,,0.03,meteohub,2013-05-04 13:36:00,
2013-05-04 08:41:00,62.4,58.1,29.90,SE,124,5.0,7.0,86,0.00,,,0.03,meteohub,2013-05-04 13:41:00,
2013-05-04 08:46:00,62.2,58.3,29.90,SE,137,0.0,7.0,87,0.00,,,0.03,meteohub,2013-05-04 13:46:00,
2013-05-04 08:51:00,62.2,57.9,29.90,SE,143,5.0,10.0,86,0.00,,,0.03,meteohub,2013-05-04 13:51:00,
2013-05-04 08:56:00,62.2,58.3,29.90,SE,138,5.0,10.0,87,0.00,,,0.03,meteohub,2013-05-04 13:56:00,
2013-05-04 09:01:00,62.8,58.5,29.90,SSE,152,5.0,10.0,86,0.00,,,0.03,meteohub,2013-05-04 14:01:00,
2013-05-04 09:06:00,63.0,58.6,29.91,SE,126,6.0,9.0,86,0.00,,,0.03,meteohub,2013-05-04 14:06:00,
2013-05-04 09:11:00,63.0,58.1,29.91,South,175,6.0,9.0,84,0.00,,,0.03,meteohub,2013-05-04 14:11:00,
2013-05-04 09:16:00,63.0,57.7,29.91,SSE,166,6.0,9.0,83,0.00,,,0.03,meteohub,2013-05-04 14:16:00,
2013-05-04 09:21:00,62.8,57.2,29.91,SE,129,6.0,8.0,82,0.00,,,0.03,meteohub,2013-05-04 14:21:00,
2013-05-04 09:26:00,62.8,56.8,29.91,SSE,147,6.0,9.0,81,0.00,,,0.03,meteohub,2013-05-04 14:26:00,
2013-05-04 09:31:00,62.8,56.8,29.91,SSE,159,5.0,10.0,81,0.00,,,0.03,meteohub,2013-05-04 14:31:00,
2013-05-04 09:36:00,63.0,56.7,29.91,South,186,8.0,10.0,80,0.00,,,0.03,meteohub,2013-05-04 14:36:00,
2013-05-04 09:41:00,63.1,57.2,29.91,South,173,0.0,10.0,81,0.00,,,0.03,meteohub,2013-05-04 14:41:00,
2013-05-04 09:46:00,63.3,57.4,29.92,South,174,0.0,9.0,81,0.00,,,0.03,meteohub,2013-05-04 14:46:00,
2013-05-04 09:51:00,63.5,57.6,29.92,SSE,153,0.0,9.0,81,0.00,,,0.03,meteohub,2013-05-04 14:51:00,
2013-05-04 09:56:00,63.7,57.4,29.92,SE,124,6.0,9.0,80,0.00,,,0.03,meteohub,2013-05-04 14:56:00,
2013-05-04 10:01:00,63.9,56.8,29.92,South,177,0.0,10.0,78,0.00,,,0.03,meteohub,2013-05-04 15:01:00,
2013-05-04 10:07:00,63.9,56.8,29.92,SSE,165,0.0,10.0,78,0.00,,,0.03,meteohub,2013-05-04 15:07:00,
2013-05-04 10:12:00,63.5,56.5,29.92,SSE,158,8.0,10.0,78,0.00,,,0.03,meteohub,2013-05-04 15:12:00,
2013-05-04 10:17:00,63.7,57.4,29.92,SSE,157,7.0,11.0,80,0.00,,,0.03,meteohub,2013-05-04 15:17:00,
2013-05-04 10:22:00,63.5,56.5,29.92,South,178,7.0,11.0,78,0.00,,,0.03,meteohub,2013-05-04 15:22:00,
2013-05-04 10:27:00,63.5,56.5,29.92,South,178,7.0,11.0,78,0.00,,,0.03,meteohub,2013-05-04 15:27:00,
2013-05-04 10:32:00,63.9,57.2,29.92,South,185,0.0,11.0,79,0.00,,,0.03,meteohub,2013-05-04 15:32:00,
2013-05-04 10:37:00,63.9,57.2,29.92,SSE,168,8.0,11.0,79,0.00,,,0.03,meteohub,2013-05-04 15:37:00,
2013-05-04 10:42:00,63.1,56.5,29.93,South,189,5.0,10.0,79,0.00,,,0.03,meteohub,2013-05-04 15:42:00,
2013-05-04 10:47:00,62.8,56.5,29.92,South,176,0.0,10.0,80,0.00,,,0.03,meteohub,2013-05-04 15:47:00,
2013-05-04 10:52:00,62.1,55.8,29.92,South,172,5.0,10.0,80,0.00,,,0.03,meteohub,2013-05-04 15:52:00,
2013-05-04 10:57:00,61.9,55.9,29.92,SSE,155,5.0,9.0,81,0.00,,,0.03,meteohub,2013-05-04 15:57:00,
2013-05-04 11:02:00,62.1,56.5,29.93,SSE,168,6.0,8.0,82,0.00,,,0.03,meteohub,2013-05-04 16:02:00,
2013-05-04 11:07:00,62.4,56.5,29.92,South,178,0.0,9.0,81,0.00,,,0.03,meteohub,2013-05-04 16:07:00,
2013-05-04 11:12:00,62.4,56.1,29.93,South,182,8.0,9.0,80,0.00,,,0.03,meteohub,2013-05-04 16:12:00,
2013-05-04 11:17:00,62.2,55.9,29.93,South,179,5.0,9.0,80,0.00,,,0.03,meteohub,2013-05-04 16:17:00,
2013-05-04 11:22:00,62.4,56.8,29.93,SSW,212,0.0,9.0,82,0.00,,,0.03,meteohub,2013-05-04 16:22:00,
2013-05-04 11:27:00,62.8,56.5,29.92,SSE,156,0.0,9.0,80,0.00,,,0.03,meteohub,2013-05-04 16:27:00,
2013-05-04 11:32:00,63.3,56.7,29.92,SSW,199,0.0,10.0,79,0.00,,,0.03,meteohub,2013-05-04 16:32:00,
2013-05-04 11:37:00,64.0,57.0,29.92,SSE,151,0.0,10.0,78,0.00,,,0.03,meteohub,2013-05-04 16:37:00,
2013-05-04 11:42:00,63.9,57.2,29.92,SSE,165,5.0,10.0,79,0.00,,,0.03,meteohub,2013-05-04 16:42:00,
2013-05-04 11:47:00,63.1,56.8,29.92,South,182,5.0,8.0,80,0.00,,,0.03,meteohub,2013-05-04 16:47:00,
2013-05-04 11:52:00,63.0,57.0,29.92,NE,40,0.0,8.0,81,0.00,,,0.03,meteohub,2013-05-04 16:52:00,
2013-05-04 11:57:00,63.0,57.4,29.92,SSE,158,0.0,8.0,82,0.00,,,0.03,meteohub,2013-05-04 16:57:00,
2013-05-04 12:02:00,63.7,57.4,29.92,SSE,168,5.0,8.0,80,0.00,,,0.03,meteohub,2013-05-04 17:02:00,
2013-05-04 12:07:00,63.5,56.8,29.92,South,173,6.0,8.0,79,0.00,,,0.03,meteohub,2013-05-04 17:07:00,
2013-05-04 12:12:00,63.1,56.5,29.92,South,178,0.0,7.0,79,0.00,,,0.03,meteohub,2013-05-04 17:12:00,
2013-05-04 12:17:00,62.8,56.8,29.92,South,176,5.0,8.0,81,0.00,,,0.03,meteohub,2013-05-04 17:17:00,
2013-05-04 12:22:00,62.4,56.5,29.92,South,172,0.0,8.0,81,0.00,,,0.03,meteohub,2013-05-04 17:22:00,
2013-05-04 12:27:00,62.6,57.0,29.92,South,171,5.0,8.0,82,0.00,,,0.03,meteohub,2013-05-04 17:27:00,
2013-05-04 12:32:00,62.8,56.1,29.92,SSE,154,5.0,8.0,79,0.00,,,0.03,meteohub,2013-05-04 17:32:00,
2013-05-04 12:37:00,63.0,56.3,29.92,SSE,168,5.0,8.0,79,0.00,,,0.03,meteohub,2013-05-04 17:37:00,
2013-05-04 12:42:00,63.5,56.5,29.92,SSE,163,5.0,8.0,78,0.00,,,0.03,meteohub,2013-05-04 17:42:00,
2013-05-04 12:47:00,63.9,56.8,29.92,South,173,5.0,7.0,78,0.00,,,0.03,meteohub,2013-05-04 17:47:00,
2013-05-04 12:52:00,63.5,56.5,29.93,SSE,149,0.0,8.0,78,0.00,,,0.03,meteohub,2013-05-04 17:52:00,
2013-05-04 12:57:00,63.1,56.5,29.92,South,174,0.0,8.0,79,0.00,,,0.03,meteohub,2013-05-04 17:57:00,
2013-05-04 13:02:00,62.8,56.5,29.92,South,174,0.0,7.0,80,0.00,,,0.03,meteohub,2013-05-04 18:02:00,
2013-05-04 13:07:00,62.6,56.7,29.92,SSE,152,0.0,7.0,81,0.00,,,0.03,meteohub,2013-05-04 18:07:00,
2013-05-04 13:12:00,63.0,57.7,29.92,SSE,151,0.0,8.0,83,0.00,,,0.03,meteohub,2013-05-04 18:12:00,
2013-05-04 13:17:00,63.3,57.4,29.92,SSE,168,0.0,8.0,81,0.00,,,0.03,meteohub,2013-05-04 18:17:00,
2013-05-04 13:22:00,63.3,57.0,29.92,SSE,153,0.0,8.0,80,0.00,,,0.03,meteohub,2013-05-04 18:22:00,
2013-05-04 13:27:00,63.5,57.9,29.92,SE,140,0.0,8.0,82,0.00,,,0.03,meteohub,2013-05-04 18:27:00,
2013-05-04 13:32:00,63.9,57.6,29.92,SSE,147,0.0,8.0,80,0.00,,,0.03,meteohub,2013-05-04 18:32:00,
2013-05-04 13:37:00,64.0,57.7,29.92,South,184,5.0,8.0,80,0.00,,,0.03,meteohub,2013-05-04 18:37:00,
2013-05-04 13:42:00,63.7,57.4,29.92,SE,124,0.0,6.0,80,0.00,,,0.03,meteohub,2013-05-04 18:42:00,
2013-05-04 13:47:00,63.3,56.3,29.92,SE,124,6.0,6.0,78,0.00,,,0.03,meteohub,2013-05-04 18:47:00,
2013-05-04 13:52:00,63.1,55.8,29.92,SE,134,8.0,9.0,77,0.00,,,0.03,meteohub,2013-05-04 18:52:00,
2013-05-04 13:57:00,62.8,55.8,29.92,SSE,153,0.0,10.0,78,0.00,,,0.03,meteohub,2013-05-04 18:57:00,
2013-05-04 14:02:00,62.8,55.4,29.93,ESE,122,6.0,10.0,77,0.00,,,0.03,meteohub,2013-05-04 19:02:00,
2013-05-04 14:07:00,62.4,55.0,29.93,SSE,163,5.0,10.0,77,0.00,,,0.03,meteohub,2013-05-04 19:07:00,
2013-05-04 14:12:00,61.5,55.9,29.93,SE,142,0.0,9.0,82,0.00,,,0.03,meteohub,2013-05-04 19:12:00,
2013-05-04 14:17:00,60.3,56.1,29.94,South,172,6.0,9.0,86,0.00,,,0.03,meteohub,2013-05-04 19:17:00,
2013-05-04 14:22:00,59.5,55.9,29.94,SSE,161,5.0,9.0,88,0.00,,,0.03,meteohub,2013-05-04 19:22:00,
2013-05-04 14:27:00,59.2,56.3,29.94,South,185,6.0,8.0,90,0.00,,,0.03,meteohub,2013-05-04 19:27:00,
2013-05-04 14:32:00,58.8,56.1,29.94,SSE,166,6.0,9.0,91,0.01,,,0.04,meteohub,2013-05-04 19:32:00,
2013-05-04 14:37:00,58.6,55.9,29.94,SSE,148,0.0,9.0,91,0.01,,,0.04,meteohub,2013-05-04 19:37:00,
2013-05-04 14:42:00,58.5,56.1,29.94,SE,146,0.0,9.0,92,0.01,,,0.04,meteohub,2013-05-04 19:42:00,
2013-05-04 14:47:00,58.5,56.1,29.94,SE,138,0.0,8.0,92,0.01,,,0.04,meteohub,2013-05-04 19:47:00,
2013-05-04 14:52:00,58.5,56.1,29.94,SE,138,0.0,6.0,92,0.01,,,0.04,meteohub,2013-05-04 19:52:00,
2013-05-04 14:57:00,58.3,55.9,29.94,SE,138,0.0,6.0,92,0.02,,,0.05,meteohub,2013-05-04 19:57:00,
2013-05-04 15:02:00,57.9,55.6,29.94,SSE,157,0.0,6.0,92,0.02,,,0.05,meteohub,2013-05-04 20:02:00,
2013-05-04 15:07:00,57.9,55.6,29.94,SE,134,0.0,8.0,92,0.02,,,0.05,meteohub,2013-05-04 20:07:00,
2013-05-04 15:12:00,57.9,55.9,29.93,SE,134,5.0,8.0,93,0.02,,,0.05,meteohub,2013-05-04 20:12:00,
2013-05-04 15:17:00,57.9,55.9,29.94,SSE,150,5.0,8.0,93,0.02,,,0.05,meteohub,2013-05-04 20:17:00,
2013-05-04 15:22:00,57.7,55.4,29.94,SE,126,5.0,8.0,92,0.02,,,0.05,meteohub,2013-05-04 20:22:00,
2013-05-04 15:27:00,57.7,55.4,29.93,SE,124,6.0,8.0,92,0.02,,,0.05,meteohub,2013-05-04 20:27:00,
2013-05-04 15:32:00,57.7,55.4,29.93,SE,133,5.0,8.0,92,0.01,,,0.05,meteohub,2013-05-04 20:32:00,
2013-05-04 15:37:00,57.7,55.2,29.94,SSE,166,6.0,7.0,91,0.01,,,0.05,meteohub,2013-05-04 20:37:00,
2013-05-04 15:42:00,57.7,55.4,29.94,SE,141,0.0,7.0,92,0.01,,,0.05,meteohub,2013-05-04 20:42:00,
2013-05-04 15:47:00,57.7,55.4,29.94,South,182,0.0,7.0,92,0.01,,,0.05,meteohub,2013-05-04 20:47:00,
2013-05-04 15:52:00,57.7,55.2,29.94,SSE,153,5.0,7.0,91,0.01,,,0.05,meteohub,2013-05-04 20:52:00,
2013-05-04 15:57:00,57.9,55.2,29.94,SSE,158,5.0,8.0,91,0.00,,,0.05,meteohub,2013-05-04 20:57:00,
2013-05-04 16:02:00,57.9,55.2,29.93,SSE,155,0.0,8.0,91,0.00,,,0.05,meteohub,2013-05-04 21:02:00,
2013-05-04 16:07:00,57.9,55.2,29.94,South,169,0.0,8.0,91,0.00,,,0.05,meteohub,2013-05-04 21:07:00,
2013-05-04 16:12:00,58.3,55.6,29.94,SSE,160,0.0,7.0,91,0.00,,,0.05,meteohub,2013-05-04 21:12:00,
2013-05-04 16:17:00,58.3,55.6,29.93,South,179,0.0,8.0,91,0.00,,,0.05,meteohub,2013-05-04 21:17:00,
2013-05-04 16:22:00,58.6,55.9,29.93,South,170,0.0,8.0,91,0.00,,,0.05,meteohub,2013-05-04 21:22:00,
2013-05-04 16:27:00,59.2,56.5,29.93,SSE,157,0.0,8.0,91,0.00,,,0.05,meteohub,2013-05-04 21:27:00,
2013-05-04 16:32:00,59.7,56.8,29.93,South,178,0.0,6.0,90,0.00,,,0.05,meteohub,2013-05-04 21:32:00,
2013-05-04 16:37:00,60.3,56.7,29.93,ESE,121,0.0,9.0,88,0.00,,,0.05,meteohub,2013-05-04 21:37:00,
2013-05-04 16:42:00,60.4,56.8,29.93,South,176,5.0,9.0,88,0.00,,,0.05,meteohub,2013-05-04 21:42:00,
2013-05-04 16:47:00,61.0,57.4,29.93,ESE,119,6.0,9.0,88,0.00,,,0.05,meteohub,2013-05-04 21:47:00,
2013-05-04 16:52:00,61.0,56.8,29.93,SSE,147,5.0,9.0,86,0.00,,,0.05,meteohub,2013-05-04 21:52:00,
2013-05-04 16:57:00,60.6,56.7,29.93,SSE,166,0.0,9.0,87,0.00,,,0.05,meteohub,2013-05-04 21:57:00,
2013-05-04 17:02:00,61.0,57.0,29.93,SE,138,5.0,9.0,87,0.00,,,0.05,meteohub,2013-05-04 22:02:00,
2013-05-04 17:07:00,61.0,57.0,29.93,SSE,156,0.0,9.0,87,0.00,,,0.05,meteohub,2013-05-04 22:07:00,
2013-05-04 17:12:00,61.0,56.8,29.94,SE,143,5.0,7.0,86,0.00,,,0.05,meteohub,2013-05-04 22:12:00,
2013-05-04 17:17:00,61.0,56.8,29.94,SSE,150,0.0,8.0,86,0.00,,,0.05,meteohub,2013-05-04 22:17:00,
2013-05-04 17:22:00,60.6,56.1,29.94,SE,132,5.0,8.0,85,0.00,,,0.05,meteohub,2013-05-04 22:22:00,
2013-05-04 17:27:00,60.4,56.3,29.94,SSE,149,5.0,9.0,86,0.00,,,0.05,meteohub,2013-05-04 22:27:00,
2013-05-04 17:32:00,60.3,56.1,29.94,ESE,117,9.0,9.0,86,0.00,,,0.05,meteohub,2013-05-04 22:32:00,
2013-05-04 17:37:00,60.3,56.1,29.94,SE,130,5.0,10.0,86,0.00,,,0.05,meteohub,2013-05-04 22:37:00,
2013-05-04 17:42:00,60.1,56.1,29.94,SE,141,0.0,10.0,87,0.00,,,0.05,meteohub,2013-05-04 22:42:00,
2013-05-04 17:47:00,60.1,55.9,29.94,SSE,148,0.0,10.0,86,0.00,,,0.05,meteohub,2013-05-04 22:47:00,
2013-05-04 17:52:00,60.1,55.9,29.94,SE,128,5.0,8.0,86,0.00,,,0.05,meteohub,2013-05-04 22:52:00,
2013-05-04 17:57:00,60.1,55.9,29.94,SSE,155,0.0,9.0,86,0.00,,,0.05,meteohub,2013-05-04 22:57:00,
2013-05-04 18:02:00,59.7,55.6,29.95,SE,144,5.0,9.0,86,0.00,,,0.05,meteohub,2013-05-04 23:02:00,
2013-05-04 18:07:00,59.9,55.9,29.95,SSE,153,5.0,8.0,87,0.00,,,0.05,meteohub,2013-05-04 23:07:00,
2013-05-04 18:12:00,59.9,55.8,29.95,SE,132,5.0,8.0,86,0.00,,,0.05,meteohub,2013-05-04 23:12:00,
2013-05-04 18:17:00,59.9,55.8,29.95,SE,132,0.0,8.0,86,0.00,,,0.05,meteohub,2013-05-04 23:17:00,
2013-05-04 18:22:00,59.7,55.6,29.95,SE,132,0.0,7.0,86,0.00,,,0.05,meteohub,2013-05-04 23:22:00,
2013-05-04 18:27:00,59.7,55.6,29.96,SSE,153,0.0,6.0,86,0.00,,,0.05,meteohub,2013-05-04 23:27:00,
2013-05-04 18:32:00,59.7,55.6,29.95,SSE,153,5.0,6.0,86,0.00,,,0.05,meteohub,2013-05-04 23:32:00,
2013-05-04 18:37:00,59.5,55.4,29.96,SSE,153,0.0,6.0,86,0.00,,,0.05,meteohub,2013-05-04 23:37:00,
2013-05-04 18:42:00,59.5,55.4,29.96,SSE,155,0.0,6.0,86,0.00,,,0.05,meteohub,2013-05-04 23:42:00,
2013-05-04 18:47:00,59.5,55.4,29.96,SSE,155,0.0,6.0,86,0.00,,,0.05,meteohub,2013-05-04 23:47:00,
2013-05-04 18:52:00,59.5,55.6,29.96,SSE,155,0.0,6.0,87,0.00,,,0.05,meteohub,2013-05-04 23:52:00,
2013-05-04 18:57:00,59.4,55.4,29.96,SSE,155,0.0,6.0,87,0.00,,,0.05,meteohub,2013-05-04 23:57:00,
2013-05-04 19:02:00,59.4,55.4,29.96,SSE,153,0.0,6.0,87,0.00,,,0.05,meteohub,2013-05-05 00:02:00,
2013-05-04 19:07:00,59.4,55.4,29.96,SSE,155,0.0,6.0,87,0.00,,,0.05,meteohub,2013-05-05 00:07:00,
2013-05-04 19:12:00,59.4,55.4,29.96,SSE,155,0.0,6.0,87,0.00,,,0.05,meteohub,2013-05-05 00:12:00,
2013-05-04 19:17:00,59.2,55.4,29.97,SSE,153,0.0,6.0,87,0.00,,,0.05,meteohub,2013-05-05 00:17:00,
2013-05-04 19:22:00,59.2,55.6,29.97,SSE,153,0.0,6.0,88,0.00,,,0.05,meteohub,2013-05-05 00:22:00,
2013-05-04 19:27:00,58.8,55.0,29.97,SSE,155,5.0,6.0,87,0.00,,,0.05,meteohub,2013-05-05 00:27:00,
2013-05-04 19:32:00,58.8,55.0,29.98,SSE,163,0.0,6.0,87,0.00,,,0.05,meteohub,2013-05-05 00:32:00,
2013-05-04 19:37:00,58.8,55.0,29.98,South,182,0.0,8.0,87,0.00,,,0.05,meteohub,2013-05-05 00:37:00,
2013-05-04 19:42:00,58.5,54.9,29.99,SSW,193,0.0,11.0,88,0.00,,,0.05,meteohub,2013-05-05 00:42:00,
2013-05-04 19:47:00,57.9,54.7,29.99,South,178,5.0,11.0,89,0.00,,,0.05,meteohub,2013-05-05 00:47:00,
2013-05-04 19:52:00,57.7,54.9,29.99,South,180,0.0,11.0,90,0.00,,,0.05,meteohub,2013-05-05 00:52:00,
2013-05-04 19:57:00,57.6,54.7,29.99,South,172,5.0,8.0,90,0.00,,,0.05,meteohub,2013-05-05 00:57:00,
2013-05-04 20:02:00,57.4,54.9,29.99,South,185,5.0,8.0,91,0.00,,,0.05,meteohub,2013-05-05 01:02:00,
2013-05-04 20:07:00,57.2,54.7,29.99,South,171,0.0,8.0,91,0.00,,,0.05,meteohub,2013-05-05 01:07:00,
2013-05-04 20:12:00,57.0,54.5,29.99,SSW,199,8.0,8.0,91,0.00,,,0.05,meteohub,2013-05-05 01:12:00,
2013-05-04 20:17:00,57.0,54.5,29.99,SSW,203,0.0,9.0,91,0.00,,,0.05,meteohub,2013-05-05 01:17:00,
2013-05-04 20:22:00,56.8,54.5,30.00,SSW,203,0.0,9.0,92,0.00,,,0.05,meteohub,2013-05-05 01:22:00,
2013-05-04 20:27:00,56.7,54.3,30.00,SW,221,0.0,9.0,92,0.00,,,0.05,meteohub,2013-05-05 01:27:00,
2013-05-04 20:32:00,56.3,54.0,30.00,SSW,213,8.0,8.0,92,0.00,,,0.05,meteohub,2013-05-05 01:32:00,
2013-05-04 20:37:00,56.1,53.8,30.00,SSW,203,0.0,9.0,92,0.00,,,0.05,meteohub,2013-05-05 01:37:00,
2013-05-04 20:42:00,55.9,53.6,30.00,SSW,203,0.0,9.0,92,0.00,,,0.05,meteohub,2013-05-05 01:42:00,
2013-05-04 20:47:00,55.8,53.4,30.00,SSW,203,0.0,9.0,92,0.00,,,0.05,meteohub,2013-05-05 01:47:00,
2013-05-04 20:52:00,55.6,53.6,30.01,SSW,203,0.0,0.0,93,0.00,,,0.05,meteohub,2013-05-05 01:52:00,
2013-05-04 20:57:00,55.6,53.6,30.01,SSW,203,0.0,0.0,93,0.00,,,0.05,meteohub,2013-05-05 01:57:00,
2013-05-04 21:02:00,55.6,53.6,30.01,SSW,203,0.0,5.0,93,0.00,,,0.05,meteohub,2013-05-05 02:02:00,
2013-05-04 21:07:00,55.6,53.6,30.01,SSW,203,0.0,5.0,93,0.00,,,0.05,meteohub,2013-05-05 02:07:00,
2013-05-04 21:12:00,55.4,53.4,30.01,SSW,203,0.0,5.0,93,0.00,,,0.05,meteohub,2013-05-05 02:12:00,
2013-05-04 21:17:00,55.4,53.4,30.01,SSW,203,0.0,0.0,93,0.00,,,0.05,meteohub,2013-05-05 02:17:00,
2013-05-04 21:22:00,55.2,53.2,30.01,SSW,203,0.0,0.0,93,0.00,,,0.05,meteohub,2013-05-05 02:22:00,
2013-05-04 21:27:00,55.2,53.2,30.01,SSW,203,0.0,0.0,93,0.00,,,0.05,meteohub,2013-05-05 02:27:00,
2013-05-04 21:32:00,55.2,53.2,30.01,SSW,203,0.0,0.0,93,0.00,,,0.05,meteohub,2013-05-05 02:32:00,
2013-05-04 21:37:00,55.2,53.2,30.01,SSW,203,0.0,0.0,93,0.00,,,0.05,meteohub,2013-05-05 02:37:00,
2013-05-04 21:42:00,55.0,53.1,30.01,SSW,203,0.0,0.0,93,0.00,,,0.05,meteohub,2013-05-05 02:42:00,
2013-05-04 21:47:00,55.0,53.4,30.01,SSW,203,0.0,0.0,94,0.00,,,0.05,meteohub,2013-05-05 02:47:00,
2013-05-04 21:52:00,55.0,53.4,30.01,SSW,203,0.0,0.0,94,0.00,,,0.05,meteohub,2013-05-05 02:52:00,
2013-05-04 21:57:00,54.9,53.2,30.01,SSW,203,0.0,0.0,94,0.00,,,0.05,meteohub,2013-05-05 02:57:00,
2013-05-04 22:02:00,54.9,53.2,30.01,SSW,203,0.0,0.0,94,0.00,,,0.05,meteohub,2013-05-05 03:02:00,
2013-05-04 22:07:00,54.7,53.1,30.01,SSW,203,0.0,0.0,94,0.00,,,0.05,meteohub,2013-05-05 03:07:00,
2013-05-04 22:12:00,54.7,53.1,30.01,SSW,203,0.0,0.0,94,0.00,,,0.05,meteohub,2013-05-05 03:12:00,
2013-05-04 22:17:00,54.7,53.2,30.01,SSW,203,0.0,0.0,95,0.00,,,0.05,meteohub,2013-05-05 03:17:00,
2013-05-04 22:22:00,54.9,53.4,30.01,SSW,203,0.0,0.0,95,0.00,,,0.05,meteohub,2013-05-05 03:22:00,
2013-05-04 22:27:00,54.7,53.2,30.02,SSW,203,0.0,0.0,95,0.00,,,0.05,meteohub,2013-05-05 03:27:00,
2013-05-04 22:32:00,54.7,53.2,30.02,SSW,203,0.0,0.0,95,0.00,,,0.05,meteohub,2013-05-05 03:32:00,
2013-05-04 22:37:00,54.7,53.2,30.02,SSW,203,0.0,0.0,95,0.00,,,0.05,meteohub,2013-05-05 03:37:00,
2013-05-04 22:42:00,54.5,53.1,30.01,SSW,203,0.0,0.0,95,0.00,,,0.05,meteohub,2013-05-05 03:42:00,
2013-05-04 22:47:00,54.7,53.2,30.01,SSW,203,0.0,0.0,95,0.00,,,0.05,meteohub,2013-05-05 03:47:00,
2013-05-04 22:52:00,54.3,52.9,30.00,SSW,203,0.0,0.0,95,0.00,,,0.05,meteohub,2013-05-05 03:52:00,
2013-05-04 22:57:00,54.3,52.9,30.01,SSW,203,0.0,0.0,95,0.00,,,0.05,meteohub,2013-05-05 03:57:00,
2013-05-04 23:01:00,54.5,53.1,30.01,SSW,203,0.0,0.0,95,0.00,,,0.05,meteohub,2013-05-05 04:01:00,
2013-05-04 23:02:00,54.5,53.1,30.01,SSW,203,0.0,0.0,95,0.00,,,0.05,meteohub,2013-05-05 04:02:00,
2013-05-04 23:05:00,54.5,53.1,30.00,SSW,203,0.0,0.0,95,0.00,,,0.05,meteohub,2013-05-05 04:05:00,
2013-05-04 23:08:00,54.5,53.1,30.00,SSW,203,0.0,0.0,95,0.00,,,0.05,meteohub,2013-05-05 04:08:00,
2013-05-04 23:13:00,54.5,53.1,30.00,SSW,203,0.0,0.0,95,0.00,,,0.05,meteohub,2013-05-05 04:13:00,
2013-05-04 23:18:00,54.5,53.1,30.00,SSW,203,0.0,0.0,95,0.00,,,0.05,meteohub,2013-05-05 04:18:00,
2013-05-04 23:23:00,54.5,53.4,30.00,SSW,203,0.0,0.0,96,0.00,,,0.05,meteohub,2013-05-05 04:23:00,
2013-05-04 23:28:00,54.3,53.2,29.99,SSW,203,0.0,0.0,96,0.00,,,0.05,meteohub,2013-05-05 04:28:00,
2013-05-04 23:33:00,54.3,53.2,29.99,SSW,203,0.0,0.0,96,0.00,,,0.05,meteohub,2013-05-05 04:33:00,
2013-05-04 23:38:00,54.3,53.2,29.99,SSW,203,0.0,0.0,96,0.00,,,0.05,meteohub,2013-05-05 04:38:00,
2013-05-04 23:43:00,54.3,53.2,29.99,SSW,203,0.0,0.0,96,0.00,,,0.05,meteohub,2013-05-05 04:43:00,
2013-05-04 23:49:00,54.3,53.2,29.99,SSW,203,0.0,0.0,96,0.00,,,0.05,meteohub,2013-05-05 04:49:00,
2013-05-04 23:54:00,54.3,53.2,29.99,SSW,203,0.0,0.0,96,0.00,,,0.05,meteohub,2013-05-05 04:54:00,
2013-05-04 23:59:00,54.3,53.2,30.00,SSW,203,0.0,0.0,96,0.00,,,0.05,meteohub,2013-05-05 04:59:00,